SCP
10 9 7 6 5 4 4 5 5 4 4 3 3 3 3 4 3 3 2 2 2 1 1 1 1 1 1 1 1 1 1 1 1 1 1 1 1 1 1 1 1 1 1
8 7 6 5 5 4 4 4 4 4 4 4 3 3 3 3 3 3 3 2 2 1 1 1 1 1 1 1 1 1 1 1 1 1 1 1 1 1 1 1 1 1 1
6 6 5 5 5 4 4 3 4 4 4 4 3 3 3 3 3 4 4 3 2 2 1 1 1 1 1 1 1 1 1 1 1 1 1 1 1 1 1 1 1 1 1
5 5 5 5 5 4 4 3 4 4 4 3 3 3 2 2 2 3 4 4 3 2 2 2 1 1 1 1 1 1 1 1 1 1 1 1 1 1 1 1 1 1 1
4 4 4 4 4 4 3 3 4 4 4 3 3 3 2 2 2 2 3 4 4 3 2 2 1 1 1 1 1 1 1 1 1 1 1 1 1 1 1 1 1 1 1
4 4 4 4 4 3 3 3 4 4 4 3 3 3 2 1 1 1 2 3 4 4 3 2 1 1 1 1 1 1 1 1 1 1 1 1 1 1 1 1 1 1 1
5 5 5 4 4 3 3 3 4 4 4 4 3 3 2 1 1 1 1 3 4 4 3 2 2 1 1 1 1 1 1 1 1 1 1 1 1 1 2 1 1 1 1
6 5 4 4 3 3 3 3 4 5 5 5 4 3 3 2 1 0 1 2 3 3 3 3 2 2 2 1 1 1 1 1 1 0 1 1 1 1 2 1 1 1 1
7 6 5 3 3 3 3 4 5 5 6 6 5 4 3 2 1 0 1 2 2 2 2 2 2 1 1 1 1 1 1 1 1 1 0 0 0 1 1 1 1 1 1
7 6 5 4 3 3 4 4 5 5 6 6 5 4 4 3 1 1 1 2 2 2 2 2 1 1 1 1 1 2 2 2 2 2 1 1 1 1 1 1 1 1 1
7 7 6 5 4 4 5 5 5 5 5 6 6 5 4 3 2 1 1 1 2 2 2 2 1 1 0 0 1 1 2 2 2 2 2 2 1 1 1 1 1 1 1
9 8 8 7 6 6 7 6 5 4 5 6 6 5 4 3 2 1 0 1 2 3 2 2 1 0 0 0 0 1 1 1 2 2 2 2 2 2 2 2 2 2 2
11 11 10 9 9 9 9 7 5 5 5 6 6 5 4 3 2 1 0 0 1 2 2 2 1 0 0 0 0 0 0 1 1 2 2 2 2 2 2 2 3 3 3
14 14 12 11 11 12 10 7 6 5 6 6 5 4 4 3 2 2 1 1 0 1 1 1 1 1 1 1 1 1 1 1 1 1 1 1 1 1 2 2 3 4 4
14 14 13 12 12 12 9 6 5 5 5 5 4 4 3 2 2 2 2 1 1 1 1 1 1 1 1 1 2 2 2 1 1 1 1 1 1 1 2 2 4 4 4
13 13 13 12 12 10 7 4 3 3 3 3 3 3 2 1 1 1 1 1 1 1 1 2 2 2 2 2 2 3 2 2 2 2 2 2 2 2 2 3 3 3 3
12 12 13 13 11 8 5 3 2 2 1 1 1 1 1 0 0 0 0 0 0 1 1 2 3 3 3 3 3 3 3 2 2 3 3 4 4 3 3 2 2 2 2
10 11 13 12 9 6 4 3 2 2 1 1 1 0 0 0 0 0 0 0 0 1 1 2 3 3 3 4 4 4 3 3 2 3 3 4 4 4 3 2 2 2 2
8 10 11 9 7 5 4 3 3 2 2 2 1 1 0 0 0 0 0 1 1 1 2 2 2 3 3 4 4 4 3 3 2 2 2 3 3 3 2 2 1 1 1
6 7 7 6 4 3 3 3 3 2 2 2 2 1 0 0 0 0 0 1 1 2 2 2 2 2 2 2 3 3 3 2 2 2 2 2 2 2 1 1 1 1 1
4 4 3 3 2 2 3 3 2 2 2 2 2 1 0 1 1 1 1 1 1 1 1 1 1 1 1 1 2 2 2 1 1 1 1 1 1 1 1 1 1 1 1
2 2 2 2 2 2 3 3 2 2 2 2 1 1 0 1 1 1 1 1 1 1 1 1 1 1 1 1 2 1 1 1 1 1 1 1 1 1 1 1 1 1 1
2 3 3 3 3 3 3 3 2 2 2 2 1 1 1 1 1 1 2 1 1 1 1 1 1 1 1 1 2 1 1 1 1 1 1 1 1 1 1 1 1 1 1
3 4 4 3 3 2 2 2 1 1 1 1 1 1 1 1 2 2 2 2 2 1 1 1 1 1 1 2 2 1 1 1 1 1 1 1 1 1 1 1 1 1 1
3 3 3 2 1 1 1 1 1 1 1 1 1 2 2 2 2 2 2 1 1 1 1 1 1 1 1 1 1 1 1 1 0 0 0 1 1 1 1 1 1 1 1
2 1 1 1 1 1 1 1 1 1 1 1 2 2 2 2 2 1 1 1 1 1 1 1 1 1 1 1 1 1 0 0 0 0 0 0 1 1 1 0 1 1 1
Wind_Speed
4 3 2 2 2 2 1 1 1 1 1 2 2 3 3 3 3 3 3 3 3 3 3 3 3 3 2 2 2 1 1 1 1 1 1 1 2 2 2 2 3 5 6
4 3 3 2 2 1 1 1 1 1 1 1 1 2 3 3 3 3 4 3 3 3 3 3 3 3 3 2 2 1 1 1 1 1 1 2 2 3 3 3 3 4 4
4 4 3 2 2 1 1 0 1 1 1 1 1 2 2 2 3 3 3 3 3 3 3 3 3 3 2 2 2 2 1 1 1 1 2 1 1 2 2 3 3 2 4
3 3 2 2 2 2 1 1 1 1 2 2 2 2 3 3 3 3 3 3 3 3 3 3 2 2 2 2 3 2 2 1 1 1 1 2 2 2 2 2 2 2 2
3 3 2 2 2 2 2 2 2 2 3 2 2 2 3 2 2 2 2 3 3 2 2 2 3 2 2 1 2 1 2 1 1 1 1 1 1 1 2 2 2 2 2
2 2 2 2 2 1 2 2 2 2 2 2 2 3 3 2 0 0 2 3 2 2 2 2 3 3 4 3 1 0 1 2 1 1 1 1 1 1 1 2 1 1 1
2 2 2 2 2 1 2 1 1 1 1 2 2 2 1 1 1 1 2 3 2 2 2 2 3 3 4 3 4 4 2 2 3 2 2 2 2 1 1 2 1 1 2
2 2 2 2 2 1 1 1 2 2 2 2 2 2 1 2 1 1 3 3 3 3 3 3 3 2 3 2 4 4 4 3 4 3 3 3 2 1 1 2 3 3 3
2 1 1 1 1 1 1 2 2 2 2 3 3 3 2 2 3 3 2 3 3 3 3 3 3 3 3 3 3 3 3 3 5 4 4 4 3 3 2 2 2 2 3
2 2 1 1 2 2 2 2 2 2 3 3 3 3 3 3 4 4 3 3 3 3 3 3 3 3 3 3 3 3 4 4 3 3 3 4 5 6 6 5 3 3 3
2 2 2 2 2 2 2 2 2 3 3 4 4 4 4 4 5 6 6 3 3 3 3 2 2 4 4 4 4 3 4 4 3 3 4 4 4 4 5 5 5 4 3
2 2 2 2 3 2 2 3 3 3 3 4 4 4 3 3 4 6 7 6 4 3 2 1 1 2 4 5 4 4 5 4 4 4 4 4 4 4 4 5 5 5 5
3 3 2 3 3 2 3 3 3 3 3 3 3 3 3 3 3 7 8 8 6 3 2 2 1 3 4 4 6 6 4 4 4 4 4 4 3 4 4 4 5 5 6
3 3 3 3 3 2 2 3 3 3 3 3 3 3 3 2 1 2 3 4 5 4 3 2 3 5 4 4 4 5 5 4 4 4 4 3 3 3 4 4 4 4 4
4 3 3 4 3 3 2 2 3 3 3 3 3 3 2 2 1 2 2 2 2 2 2 2 3 3 3 4 4 4 4 4 5 5 4 4 3 3 3 3 2 2 3
4 4 3 3 2 2 2 2 2 3 4 4 4 3 2 2 3 3 3 3 3 3 3 4 4 4 4 4 4 5 5 5 5 4 4 4 4 4 3 2 2 3 3
3 4 3 3 3 3 3 3 2 2 3 5 6 5 5 5 4 4 3 2 3 3 4 5 4 4 4 4 4 4 4 4 4 4 4 4 3 3 3 3 3 3 3
5 5 5 4 3 3 3 4 3 3 3 3 3 5 6 6 6 6 5 2 3 4 5 6 5 4 4 4 3 3 3 3 3 3 3 3 3 3 3 2 3 3 3
5 4 3 3 4 4 4 4 4 4 3 3 2 2 4 4 4 4 5 4 5 5 5 5 5 5 4 3 3 3 3 3 3 3 3 3 3 3 3 3 2 3 3
4 5 5 4 4 4 5 5 4 4 3 3 2 2 1 2 2 3 4 4 5 4 4 4 3 3 3 3 3 3 3 3 2 2 2 3 3 3 3 4 3 3 3
4 4 5 5 5 5 5 5 5 4 3 3 2 2 3 3 3 3 3 3 4 3 3 3 3 3 3 3 3 3 3 2 2 2 2 2 2 2 3 3 3 3 2
5 4 4 4 4 4 4 4 4 4 5 4 2 2 4 3 2 3 3 3 3 2 2 3 3 3 2 2 2 2 2 2 1 2 2 2 2 3 3 3 3 3 3
5 4 4 4 4 4 5 4 4 4 4 3 3 2 2 2 2 2 3 2 2 2 1 2 3 3 2 1 1 1 1 1 1 2 2 2 2 2 3 4 4 4 3
5 4 4 4 4 4 4 4 3 4 4 3 2 1 2 2 2 2 2 2 2 1 1 2 2 1 2 1 0 0 1 1 2 2 2 2 3 3 3 4 4 4 3
5 5 4 5 4 4 3 3 3 3 3 3 3 2 2 2 2 2 2 1 2 1 1 1 1 1 1 2 2 2 1 2 1 2 3 3 4 4 4 5 4 4 4
5 5 5 4 4 4 4 3 3 3 3 3 3 3 3 3 2 2 1 1 1 1 1 1 1 1 1 1 2 2 1 1 1 2 3 4 4 3 4 4 6 5 5
Wind_Direction
159 159 155 166 182 190 204 228 206 216 213 216 208 200 202 202 206 209 224 217 220 220 230 227 221 240 270 274 266 269 254 211 213 213 160 149 169 172 174 210 192 188 197
154 149 147 151 162 183 202 201 194 237 233 229 224 230 221 209 209 211 230 227 220 226 232 235 229 230 233 269 279 269 258 202 189 214 207 184 197 188 182 215 220 207 200
149 151 149 151 158 176 196 148 154 245 256 237 221 242 244 225 221 220 224 234 227 227 227 227 223 226 226 244 255 261 254 236 182 202 212 185 193 201 190 223 239 232 233
147 151 157 161 165 166 176 190 183 213 240 242 230 238 241 229 228 233 236 241 236 225 215 217 213 206 210 248 245 254 255 253 228 221 220 194 199 209 195 217 238 224 242
152 160 168 169 167 176 190 201 202 219 235 244 253 249 255 242 242 258 260 243 243 243 222 206 203 190 185 219 253 251 248 238 236 234 242 223 208 189 208 232 230 229 235
152 167 161 176 188 193 202 216 225 233 241 239 247 251 254 263 222 279 285 263 242 235 230 216 208 198 194 192 189 159 275 243 244 260 266 259 249 225 223 250 246 235 251
164 169 167 184 189 202 224 200 229 261 269 272 263 259 250 297 346 329 287 276 254 236 226 231 243 217 205 190 200 209 236 249 240 249 258 263 258 257 276 279 279 261 258
181 188 173 187 197 198 215 211 215 229 240 258 265 265 251 252 244 281 297 266 256 239 229 226 229 237 238 224 222 212 215 226 233 232 249 270 276 308 276 255 255 253 251
210 205 185 196 205 208 237 248 236 232 240 250 252 254 240 232 225 220 248 267 254 236 233 230 223 226 220 232 234 219 221 230 236 242 239 234 237 253 256 280 269 259 260
227 230 224 215 220 222 230 246 255 244 244 251 251 248 240 230 220 208 210 255 255 242 229 212 204 212 204 206 229 227 233 242 247 236 238 242 236 234 227 226 244 256 260
259 254 248 237 231 224 227 234 245 241 239 242 249 246 243 232 211 207 205 239 260 255 235 231 199 182 198 214 230 244 241 257 255 243 233 233 231 225 217 217 223 230 247
277 262 254 243 246 229 231 234 239 245 244 241 243 249 246 223 208 203 205 224 258 272 268 257 218 181 211 226 230 239 248 261 253 244 240 235 231 228 222 219 221 225 228
294 272 248 240 238 232 229 239 242 239 243 249 244 247 249 229 202 196 203 221 237 256 286 290 268 218 211 225 231 232 238 243 244 247 248 245 238 228 224 222 223 226 233
283 277 253 237 234 235 239 244 251 256 259 258 255 257 253 239 202 182 202 214 221 233 264 282 257 230 233 234 222 221 223 232 236 245 253 252 247 239 233 225 223 213 228
277 274 266 251 246 232 232 246 247 241 237 248 262 262 262 254 218 186 194 218 226 227 232 235 240 237 227 219 219 219 218 222 232 241 249 254 251 246 245 232 222 220 231
274 274 270 261 249 246 240 251 274 245 223 222 236 254 264 240 207 195 214 226 229 210 219 237 235 233 235 229 223 218 217 223 229 233 238 245 247 244 244 235 223 231 241
274 273 272 273 267 265 269 257 255 258 232 235 234 232 232 230 217 204 213 231 236 203 228 245 243 243 244 240 235 230 225 221 227 234 237 237 242 248 246 239 240 244 250
274 271 267 263 264 263 261 261 259 254 253 249 235 223 219 223 224 217 201 191 234 222 237 245 241 243 245 246 246 244 238 224 225 240 244 241 239 244 242 239 240 244 247
276 271 267 270 268 266 262 259 260 256 253 256 253 234 219 215 225 229 198 222 242 245 245 251 248 249 248 242 245 244 245 237 226 229 240 246 246 247 252 253 250 251 248
278 278 278 272 270 266 263 265 266 263 263 261 251 239 197 206 226 218 217 231 243 248 251 261 267 264 257 249 244 240 239 236 232 232 237 239 247 250 251 250 250 245 237
282 273 267 273 272 273 273 273 272 272 266 258 258 238 225 233 234 231 235 237 246 254 254 261 265 266 263 260 260 254 251 249 245 243 245 248 253 255 252 249 251 249 246
286 282 277 278 283 281 279 277 275 273 274 270 252 224 214 236 249 258 256 255 245 242 258 268 271 265 260 256 260 264 262 262 263 265 259 256 258 262 261 254 247 242 246
287 286 288 285 282 281 277 277 277 274 270 276 281 264 247 260 259 259 264 266 271 269 279 284 281 279 269 260 256 256 277 300 301 292 278 271 280 279 272 263 258 254 250
289 290 287 283 282 280 279 282 283 281 284 287 284 279 274 267 276 278 283 292 286 270 255 267 282 305 325 330 324 50 34 359 337 318 309 295 285 280 282 282 274 264 264
291 294 290 284 285 290 286 281 283 283 284 291 290 279 273 271 272 280 280 283 292 293 293 289 293 344 47 39 37 57 42 49 32 330 302 274 264 259 263 272 274 271 265
299 300 294 290 289 293 297 295 286 285 283 281 287 289 279 269 266 274 284 299 300 319 318 315 0 23 26 53 74 89 78 49 353 307 287 274 268 267 271 274 280 276 271